www.pogodaiklimat.ru

Погода и климат >> Архив погоды >> Россия >> Красноярский край >> Минусинск


АРХИВ ПОГОДЫ в Минусинске

Время (UTC), дата Ветер
(напр.,м/с)
 
Видим.   Явления Облачность Т
(С)
Тd
(С)
f
(%)
Тe
(С)
Тes
(С)
Комфортность P
(гПа)
Po
(гПа)
Тmin
(С)
Tmax
(С)
R
(мм)
R24
(мм)
S
(см)
00 14.03 ЮЗ 2 н/о 10/6 1000 м
[Sc Ci fib]
+4.2 -4.8 52 +2 +2 1026.2 994.7 -3.0
03 14.03 ЮЗ 4 50 км 10/8 1000 м
[Sc Ac As]
+5.4 -5.4 46 +2 +2 1027.3 995.9
06 14.03 ЮЗ 4 50 км 10/9 1000 м
[Sc Ac As]
+7.8 -6.0 37 +5 +5 1027.5 996.3
09 14.03 Ю 2 50 км 10/10 1000 м
[Sc]
+8.8 -6.0 35 +8 +8 1027.0 995.9
12 14.03 штиль 0 50 км 10/8 1000 м
[Sc Ac As]
+6.9 -5.4 41 +7 +7 1026.2 994.9 +9.4
15 14.03 штиль 0 н/о 10/0
[Ac As]
+1.2 -4.4 66 +1 +1 1027.3 995.4
18 14.03 штиль 0 н/о 9/0
[Ci fib]
-2.4 -5.0 82 -3 -3 1027.6 995.3
21 14.03 штиль 0 н/о 4/0
[Ci fib]
-4.6 -5.5 93 -6 -6 1026.4 993.8
00 15.03 штиль 0 20 км 6/0
[Ci fib]
-5.2 -5.9 95 -6 -6 1025.5 992.9 -6.1
03 15.03 штиль 0 50 км 6/0
[Ci fib]
+1.9 -3.5 67 +1 +6 1023.7 991.9 -6.6
06 15.03 СВ 1 50 км 3/0
[Ci fib]
+9.6 -3.3 40 +10 +18 1020.9 990.1
09 15.03 СВ 1 50 км 3/0
[Ci fib]
+14.0 -3.5 30 +15 +18 1017.5 987.4
12 15.03 штиль 0 50 км 3/0
[Ci fib]
+9.6 -5.0 35 +10 +10 1016.6 985.9 +15.1
15 15.03 штиль 0 н/о ясно -1.6 -4.2 82 -3 -3 1017.6 985.7
18 15.03 штиль 0 н/о ясно -4.0 -5.0 93 -5 -5 1018.0 985.7
21 15.03 штиль 0 н/о ясно -6.1 -7.2 92 -7 -7 1017.9 985.4
00 16.03 штиль 0 10 км ясно -7.3 -7.8 96 -8 -8 1018.1 985.4 -7.6
03 16.03 штиль 0 20 км 9/0
[Ac As Ci fib]
+2.2 -3.4 66 +2 +5 1017.4 985.9 -7.8
06 16.03 С 2 50 км 10/0
[Ac As Ci]
+12.0 -4.8 31 +12 +15 1013.4 983.0
09 16.03 ЮЗ 3 50 км 10/4 1000 м
[Sc Ac As]
+15.5 -3.5 27 +15 +16 1010.1 980.3
12 16.03 СВ 2 20 км 10/10 1000 м
[Cb cap]
+11.2 -6.9 27 +11 +11 1009.3 979.0 +15.7
15 16.03 ЮЗ 4
{12}
н/о слаб. ливневой дождь 10/8 1000 м
[Cb cap Ac trans]
+7.2 -1.6 54 +4 +4 1013.7 982.9
18 16.03 З 3
{11}
н/о {ливн. осадки} 9/3 1000 м
[Sc Ac trans Ci fib]
+1.4 -6.0 58 -2 -2 1016.7 985.1
21 16.03 ЮЗ 3 н/о 8/0
[Ci fib]
-1.8 -8.3 61 -6 -6 1017.5 985.5
00 17.03 ЮЗ 2 20 км 10/6 1000 м
[Cb cap Ac As Ci fib]
-1.6 -6.4 70 -5 -5 1018.5 986.6 -2.1 0.0
03 17.03 З 5
{10}
50 км 9/0
[Ci]
+0.7 -9.8 45 -4 -3 1018.7 987.0
06 17.03 З 4 50 км 10/3 1000 м
[Sc Ac trans Ci sp]
+2.6 -10.1 39 -1 +1 1017.8 986.3
09 17.03 СЗ 4 50 км 10/6 600 м
[Cb cap Ac trans Ci fib]
+2.6 -9.6 40 -1 -1 1016.9 985.4
12 17.03 З 3 50 км 10/0
[Ci sp]
+0.6 -10.0 45 -3 -3 1018.0 986.3 +3.3
15 17.03 СЗ 3 н/о 10/0
[Ac As]
-1.6 -8.5 59 -6 -6 1020.3 988.3
18 17.03 СЗ 3 н/о 10/0
[Ac As]
-3.4 -6.6 78 -9 -9 1022.6 990.3
21 17.03 СЗ 4 н/о 10/0
[Ac As Ci fib]
-4.8 -8.0 78 -11 -11 1025.1 992.5
00 18.03 СЗ 2 50 км 8/0
[Ci fib]
-6.0 -9.9 74 -10 -10 1027.5 994.7 -5.9
03 18.03 СЗ 3 50 км 10/4 1000 м
[Cu hum Ci fib]
-4.1 -9.5 66 -9 -8 1030.1 997.4
06 18.03 СЗ 4 50 км 10/8 1000 м
[Cu med, cong Ci fib]
-2.3 -10.5 53 -8 -7 1030.9 998.5
09 18.03 С 3 50 км слаб. ливневой снег 10/8 600 м
[Cb cap Ci fib]
-1.9 -9.8 55 -6 -6 1031.4 999.0
12 18.03 СЗ 2 50 км {ливн. осадки} 10/6 600 м
[Cb cap Ci fib]
-2.8 -8.5 65 -6 -6 1032.6 999.9 -0.1 0.0
15 18.03 Ю 1 н/о 10/3 1000 м
[Cu hum Ci fib]
-7.2 -8.5 90 -10 -10 1034.2 1001.0
18 18.03 штиль 0 н/о 8/3 1000 м
[Cu hum Ci fib]
-8.1 -9.9 87 -9 -9 1034.3 1001.0
21 18.03 штиль 0 н/о 10/8 1000 м
[Cu Sc Ci fib]
-6.3 -8.2 86 -7 -7 1034.3 1001.3
00 19.03 штиль 0 50 км 8/3 1000 м
[Sc Ci fib]
-10.6 -11.2 95 -11 -11 1034.5 1001.0 -10.6
03 19.03 Ю 1 50 км 4/0
[Ci fib]
-4.3 -9.0 70 -6 -2 1033.7 1000.9 -11.4
06 19.03 Ю 2 50 км 9/3 1000 м
[Cu hum Ci fib]
+0.7 -12.3 37 -2 +3 1031.2 999.1
09 19.03 С 1 50 км 9/3 1000 м
[Cu hum Ci fib]
+2.4 -12.0 34 +2 +4 1028.9 997.1
12 19.03 штиль 0 50 км 10/3 1000 м
[Sc Ac trans Ci fib]
-0.6 -13.2 38 -1 -1 1028.3 996.2 +2.9
15 19.03 штиль 0 н/о 10/0
[As trans Cs]
-2.9 -8.7 64 -4 -4 1029.5 996.9
18 19.03 штиль 0 н/о 10/0
[Cs]
-4.6 -7.3 81 -6 -6 1030.5 997.8
21 19.03 штиль 0 н/о 10/0
[Ac As Ci fib]
-6.0 -7.9 86 -7 -7 1031.0 998.1
00 20.03 штиль 0 20 км 10/0
[Ac As Ci fib]
-6.2 -7.7 89 -7 -7 1032.5 999.5 -6.6
03 20.03 штиль 0 10 км слаб. снег 10/3 1000 м
[Sc Ac As Ci fib]
-1.6 -5.0 78 -3 -0 1033.0 1000.6 -7.7
06 20.03 штиль 0 10 км слаб. ливневой снег 9/9 600 м
[Cb cap]
-0.9 -5.1 73 -2 -1 1033.3 1000.9
09 20.03 СВ 2 50 км {ливн. осадки} 10/6 600 м
[Cb cap Ac trans Ci fib]
+0.1 -4.1 73 -3 -2 1033.1 1000.9
12 20.03 СВ 3 50 км {ливн. осадки} 4/4 600 м
[Cu Sc]
-1.0 -7.5 61 -5 -5 1034.2 1001.8 +1.1 0.0
15 20.03 штиль 0 н/о 4/0
[Ci fib]
-6.6 -8.6 86 -7 -7 1035.3 1002.3
18 20.03 Ю 1 н/о 8/0
[Ac lent Cs]
-9.2 -9.9 95 -12 -12 1035.7 1002.3

 

Местоположение метеостанции Минусинск (Красноярский край, Россия): широта 53.72 долгота 91.70 высота над уровнем моря 255 м.

В архиве по умолчанию представлена погода в Минусинске за последнюю неделю. Архивные данные за месяц целиком и за предыдущие месяцы, начиная с января 2011 года, Вы можете получить, выбрав интересующий диапазон дат из раскрывающегося списка и нажав кнопку "Ввод!".


*Определитесь, кто Вы:
робот инопланетянин человек

Внимание! Время в таблицах - всемирное. Для получения местного времени необходимо прибавить поправку, которая равна 7 ч.

Смотрите также архив погоды в соседних городах и на ближайших метеорологических станциях:

Погода в Хакасской (Хакасия, Россия) (26 км)
Погода в Теси (Красноярский край, Россия) (37 км)
Погода в Лебяжьем (Красноярский край, Россия) (54 км)
Погода в Ермаковском (Красноярский край, Россия) (67 км)
Погода в Курагино (Красноярский край, Россия) (67 км)
Погода в Саяногорске (Хакасия, Россия) (71 км)
Погода в Каратузском (Красноярский край, Россия) (77 км)
Погода в Идринском (Красноярский край, Россия) (78 км)
Погода в Уйбате (Хакасия, Россия) (88 км)
Погода в Бее (Хакасия, Россия) (91 км)

Пояснения к столбцам:

Ветер - указаны скорость ветра в м/с - средняя за 10 мин, порывы в срок и между сроками (в фигурных скобках) и направление, откуда дует ветер: С - северный, СВ - северо-восточный, В - восточный, ЮВ - юго-восточный, Ю - южный, ЮЗ - юго-западный, З - западный, СЗ - северо-западный.
Видимость - горизонтальная дальность видимости в метрах или километрах. При видимости от 1 до 10 км при отсутствии осадков обычно наблюдается дымка, при ухудшении видимости до 1 км и менее - туман. В сухую погоду видимость может ухудшаться дымом, пылью или мглою.
Явления - указаны атмосферные явления, наблюдавшиеся в срок или в последний час перед сроком; фигурными скобками обозначены явления, наблюдавшиеся между сроками (за 1-3 часа до срока); квадратными скобками обозначены град или гололедные отложения с указанием их диаметра в мм.
Облачность - указаны через наклонную черту общая и нижняя облачность в баллах и высота нижней границы облаков в метрах; квадратными скобками обозначены формы облаков: Ci - перистые, Cs - перисто-слоистые, Cc - перисто-кучевые, Ac - высококучевые, As - высокослоистые, Sc - слоисто-кучевые, Ns - слоисто-дождевые, Cu - кучевые, Cb - кучево-дождевые. Подробнее классификацию облаков см. в Атласе облаков (PDF).
T - Температура воздуха - температура, измеренная на высоте 2 м над землей.
Td - Температура точки росы - температура, при понижении до которой содержащийся в воздухе водяной пар достигнет насыщения.
f - Относительная влажность воздуха - влажноcть воздуха, измеренная на высоте 2 м над землей.
Te - Эффективная температура - температура, которую ощущает одетый по сезону человек в тени. Характеристика душности погоды. При расчете учитывается влияние влажности воздуха и скорости ветра на теплоощущения человека.
Tes - Эффективная температура на солнце - температура, которую ощущает человек, с поправкой на солнечный нагрев. Характеристика знойности погоды. Зависит от высоты солнца над горизонтом, облачности и скорости ветра. Ночью, в пасмурную погоду, а также при ветре 12 м/с и более поправка равна нулю.
P - Атмосферное давление - приведенное к уровню моря атмосферное давление.
Po - Атмосферное давление - измеренное на уровне метеостанции атмосферное давление.
Tmin - Минимальная температура - минимум температуры воздуха на высоте 2 м над землей.
Tmax - Максимальная температура - максимум температуры воздуха на высоте 2 м над землей.
R - Количество осадков - Количество выпавших осадков за период времени, мм. При наведении курсора мыши на число - период времени, за который выпало указанное количество осадков.
R24 - Количество осадков - Количество выпавших осадков за 24 часа, мм.
S - Снежный покров - Высота снежного покрова, см. При наведении курсора мыши на число - состояние снежного покрова и степень покрытия местности в баллах.